STARLINK-11255, 60730

Orbit data source: Space-Track

STARLINK-11255, 60730 is a payload satellite owned by SpaceX/Seattle (US) in LEO that was launched on Wed, 28 Aug 2024 UTC via an FALCON 9 launch vehicle from the Air Force Eastern Test Range (AFETR). Payloads include a variety of satellites, spacecraft, and rockets equipped with specific instruments for various scientific and technological missions. These include communications satellites like Starlink; space stations such as the ISS; scientific satellites like the Hubble; Earth observation satellites from companies like Planet Labs, Umbra, and HawkEye 360; GPS; miniature CubeSats for education and research; and military/defense satellites.

Not visible in the next 10 days
STARLINK-11255 details
Identifier
60730, 2024-152L
Orbit
LEO
Last TLE update18 hours ago
Origin
Flag of USSpaceX/Seattle (US)
ManufacturerSpaceX/Seattle
MissionOperational spacecraft
Bus & MotorSTARLINK V2M, Unknown motor
Mass730 kg wet, ~700 kg dry
Launch date (UTC)
2024-08-28 (4 months ago)
Launch vehicle
FALCON 9
Launch site
Air Force Eastern Test Range (AFETR)
Object type
Payload
Rocket body
Debris
Shape & HBRUnknown
Radar Cross SectionLarge (>1 m²)

Expand to show TLE details & history

TLE from 18 hours ago
0 STARLINK-11255
1 60730U 24152L   24355.82007435  .00001411  00000-0  16507-4 0  9998
2 60730  53.1599 144.1292 0000947  86.3831 273.7295 15.69694103 19135
Epoch: 2024-12-20T19:40Z
Definitive object data (Epoch: 2024-12-20T19:40:54.423Z)
Latitude-0.00006°
Longitude119.02229°
Altitude360.646 km
Speed7.694 km/s
True Right ascension09h 36m 30s
True Declination0° 00' 00"
Sunlit
Object was in full shadow at TLE epoch
Visualization TLE readout
Latitude-46.99924°
Longitude62.28838°
Altitude376.37 km
Speed7.683 km/s
Apparent Right ascension03h 12m 39s
Apparent Declination-50° 07' 24"
Sunlit
Object is in full shadow
Visualization observer readout
Local Sidereal Time12:46:23
Azimuth235.944° WSW
Elevation-62.546°
Doppler factor1
Orbital elements
Apogee altitude360.671 km
Perigee altitude359.395 km
Semi-major axis6,738.17 km
Eccentricity0.0000947
Inclination53.1599°
RAAN144.1292°
Arg. of periapsis86.3831°
True anomaly273.71867°
Mean anomaly273.7295°
Eccentric anomaly273.72409°
Mean motion3.92401 °/min
BSTAR0.000016507
Orbital period91.74 mins
Loading maneuver chart data...
Loading historical data...
Loading historical data...
Loading historical data...
Loading historical data...
Loading historical data...
Loading historical data...
Loading historical data...

STARLINK-11255 Visibility forecast

Observer location: undefined°, undefined

STARLINK-11255 is not visible in the next 10 days
Span
Click to sort rows by Start time (UTC) header in descending order
Start Az.
Max El. time (UTC)
Max El. Az.
Max El.
End time (UTC)
End Az.
|